{"data":{"norad_id":68295,"epoch":"2026-09-20T02:25:37.733088Z","epoch_age_seconds":86592,"freshness":"FRESH","line1":"1 68295U 26057B   26263.10113117  .00030803  00000+0  95101-3 0  9996","line2":"2 68295  97.2846  28.5218 0000791  82.3797 277.7536 15.33496764 28451","mean_motion":15.33496764,"eccentricity":7.91e-5,"inclination_deg":97.2846,"raan_deg":28.5218,"arg_perigee_deg":82.3797,"mean_anomaly_deg":277.7536,"bstar":0.00095101,"rev_number":2845,"period_min":93.903034802883,"perigee_km":464.84784264586,"apogee_km":465.93048848525,"semimajor_km":6843.5261655656,"source":"CELESTRAK","updated_at":"2026-09-20T09:00:43.852903Z"}}